Regional Weather Roundup
Issued by NWS

Home | Current Version | Previous Version | Text Only | Print | Product List | Glossary Off
Versions: 1 2 3 4 5 6 7 8 9 10 11 12 13 14 15 16 17 18 19 20 21 22 23 24 25 26 27 28 29 30 31 32 33 34 35 36 37 38 39 40 41 42 43 44 45 46 47 48 49 50

673
ASUS45 KSLC 191210
RWRUT

UTAH REGIONAL WEATHER ROUNDUP
NATIONAL WEATHER SERVICE SALT LAKE CITY UT
600 AM MDT TUE SEP 19 2017

UTZ001>011-023>025-191300-

NORTHERN UTAH

CITY           SKY/WX    TMP DP  RH WIND       PRES   REMARKS
BRIGHAM CITY   CLOUDY    47  41  78 N18G24    29.84R
HILL AFB       LGT RAIN  48  47  95 N15       29.82R
LOGAN          LGT RAIN  45  42  89 N16G26    29.85R
OGDEN          LGT RAIN  48  45  89 N16       29.81R FOG
SALT LAKE CITY CLOUDY    57  53  86 N12       29.78R
TOOELE VALLEY  LGT RAIN  55  52  88 NW7       29.80R
WENDOVER       MOCLDY    57  36  45 N9        29.81R
HEBER CITY     LGT RAIN  61  36  39 SW18G40   29.76R
WEST JORDAN    CLOUDY    54  54 100 NW16      29.79R

$$

UTZ011>015-024>027-191300-

CENTRAL/NORTHEAST UTAH

CITY           SKY/WX    TMP DP  RH WIND       PRES   REMARKS
PROVO AIRPORT  CLOUDY    67  45  45 SW20      29.76R
MOAB/CANYONLAN CLOUDY    69  24  18 S16       29.79F
DELTA          MOCLDY    63  34  34 S18G24    29.79S
PRICE          CLEAR     54  35  48 CALM      29.83F
ROOSEVELT      CLOUDY    50  37  62 W9        29.78S
VERNAL         CLOUDY    61  34  36 SW9       29.75S

$$

UTZ013>016-019>022-027-191300-

SOUTHERN UTAH

CITY           SKY/WX    TMP DP  RH WIND       PRES   REMARKS
BRYCE CANYON   MOCLDY    49  32  52 VRB6      30.03F
CEDAR CITY     MOCLDY    62  34  35 S16G29    29.88S
MILFORD        MOCLDY    61  37  41 S14       29.84S
ST GEORGE      CLOUDY    69  37  30 SE15      29.80S
HANKSVILLE     CLOUDY    68  32  26 SW15G25   29.84R
BLANDING         N/A     49  20  31 CALM      30.08R

$$

REGIONAL REPORTS     COLORADO/ARIZONA

CITY           SKY/WX    TMP DP  RH WIND       PRES   REMARKS
CRAIG, CO      CLOUDY    63  21  20 SW12G24   29.82F
GRAND JUNCTION CLOUDY    61  27  27 SE16      29.83S
RIFLE, CO      CLOUDY    66  21  18 CALM      29.85S
MONTROSE, CO   CLOUDY    56  27  32 SE7       29.97R
CORTEZ, CO     CLOUDY    40  28  62 E6        30.04R
PAGE, AZ       MOCLDY    62  26  25 S5        29.89F
GRAND CANYON   PTCLDY    51  26  37 S9        30.08F
KINGMAN, AZ    CLEAR     67  46  47 S12       29.90R
FLAGSTAFF, AZ  CLEAR     49  25  39 W7        30.12F

$$

REGIONAL REPORTS    NEVADA/IDAHO/WYOMING

CITY           SKY/WX    TMP DP  RH WIND       PRES   REMARKS
LAS VEGAS, NV  MOCLDY    76  37  24 S14G23    29.72F
ELY, NY        PTCLDY    50  26  39 W8        29.90R
ELKO, NV       CLOUDY    50  34  54 CALM      29.88R
POCATELLO, ID  CLOUDY    43  39  86 SW14      29.83R
BURLEY, ID     CLOUDY    45  37  73 SW12      29.85R
FORT BRIDGER,    N/A     46  45  97 SW10      29.84S
EVANSTON, WY   LGT RAIN  45  43  93 SW16      29.83S
ROCK SPRINGS,  CLOUDY    47  37  68 SW8       29.82F
KEMMERER, WY   RAIN      43  41  93 SW16      29.81F

$$




USA.gov is the U.S. government's official web portal to all federal, state and local government web resources and services.